CST,Max TemperatureF,Mean TemperatureF,Min TemperatureF,Max Dew PointF,MeanDew PointF,Min DewpointF,Max Humidity, Mean Humidity, Min Humidity, Max Sea Level PressureIn, Mean Sea Level PressureIn, Min Sea Level PressureIn, Max VisibilityMiles, Mean VisibilityMiles, Min VisibilityMiles, Max Wind SpeedMPH, Mean Wind SpeedMPH, Max Gust SpeedMPH,PrecipitationIn, CloudCover, Events, WindDirDegrees
2013-11-1,69,59,50,59,52,42,100,85,37,29.84,29.76,29.69,10,10,10,18,10,23,0.00,3,,243
2013-11-2,59,49,39,49,44,39,100,82,60,30.19,30.02,29.86,10,10,10,15,5,,0.00,3,,290
2013-11-3,57,44,32,39,34,31,100,86,39,30.32,30.26,30.20,10,7,0,9,2,,0.00,0,Fog,188
2013-11-4,60,50,40,42,40,38,93,67,46,30.35,30.30,30.26,10,10,10,12,5,,0.00,3,,135
2013-11-5,68,60,52,45,42,38,60,52,40,30.37,30.26,30.19,10,10,8,13,8,18,0.00,2,,147
2013-11-6,68,56,43,61,55,40,100,93,49,30.20,30.09,30.04,10,8,2,29,10,36,0.23,7,Rain,264
2013-11-7,51,44,36,43,34,26,100,74,37,30.38,30.29,30.19,10,9,2,10,7,18,0.00,3,,303
2013-11-8,55,42,30,36,29,24,99,61,30,30.43,30.33,30.25,10,10,10,7,3,,0.00,0,,138
2013-11-9,62,50,37,38,31,26,75,55,31,30.27,30.23,30.17,10,8,4,21,7,26,0.00,1,,195
2013-11-10,60,48,37,44,29,25,99,52,30,30.38,30.33,30.25,10,4,1,10,4,,0.00,0,,21
2013-11-11,68,50,31,40,30,23,93,58,18,30.33,30.25,30.15,10,7,2,13,3,21,0.00,2,Rain,280
2013-11-12,48,38,28,43,31,18,100,80,39,30.67,30.48,30.25,10,10,10,24,16,30,0.04,6,Rain-Snow,360
2013-11-13,42,33,24,26,20,14,91,63,32,30.73,30.60,30.45,10,10,4,7,4,,0.00,0,,55
2013-11-14,56,41,26,22,18,13,83,46,18,30.44,30.33,30.19,10,10,10,15,5,,0.00,0,,177
2013-11-15,51,44,36,52,40,20,100,77,47,30.20,30.13,30.07,10,10,10,8,4,,0.02,6,Rain,148
2013-11-16,65,58,51,64,59,52,100,99,93,30.09,30.00,29.88,10,10,10,15,8,24,0.02,8,,170
2013-11-17,70,62,54,70,65,36,100,98,44,29.95,29.77,29.65,10,7,0,33,14,48,1.70,7,Fog-Rain,198
2013-11-18,59,51,42,43,34,27,82,55,37,30.28,30.13,29.96,10,9,5,12,6,17,0.00,0,,320
2013-11-19,50,41,32,32,28,24,88,61,37,30.33,30.27,30.22,10,8,2,14,7,,0.00,1,,36
2013-11-20,61,46,30,33,31,28,94,59,30,30.25,30.20,30.14,10,10,10,12,7,,0.00,0,,124
2013-11-21,66,56,45,59,48,34,100,77,52,30.27,30.22,30.16,10,10,10,12,6,,0.07,4,,148
2013-11-22,59,50,41,59,54,41,100,100,98,30.40,30.26,30.19,10,8,2,16,7,23,0.49,8,Rain,308
2013-11-23,43,33,22,41,28,13,100,74,30,30.63,30.48,30.38,10,10,10,18,12,28,0.00,5,,352
2013-11-24,33,26,18,18,14,11,81,62,40,30.72,30.61,30.49,10,10,10,13,9,17,0.00,1,,32
2013-11-25,43,36,28,34,28,14,100,85,34,30.47,30.29,30.19,10,8,1,13,6,,0.04,8,Snow,121
2013-11-26,36,34,32,36,33,25,100,95,70,30.20,30.04,29.94,10,9,4,15,8,26,0.02,8,Rain-Snow,6
2013-11-27,32,26,19,23,11,8,73,57,42,30.40,30.26,30.07,10,10,10,16,11,24,0.00,1,,315
2013-11-28,43,30,16,19,14,11,81,55,29,30.51,30.44,30.37,10,10,10,14,5,,0.00,0,,207
2013-11-29,48,35,22,26,24,18,93,64,39,30.61,30.54,30.47,10,10,10,6,2,,0.00,0,,95
2013-11-30,57,42,26,28,23,15,93,54,22,30.46,30.35,30.23,10,10,10,18,5,23,0.00,1,,163